Date,TemperatureHighF,TemperatureAvgF,TemperatureLowF,DewpointHighF,DewpointAvgF,DewpointLowF,HumidityHigh,HumidityAvg,HumidityLow,PressureMaxIn,PressureMinIn,WindSpeedMaxMPH,WindSpeedAvgMPH,GustSpeedMaxMPH,PrecipitationSumIn
2013-3-1,35,32,29,35,31,28,100,94,85,29.69,29.56,7,1,11,0.15
2013-3-2,41,33,28,30,28,25,100,80,62,29.68,29.61,7,2,11,0.19
2013-3-3,39,31,27,33,28,24,100,90,71,29.64,29.55,10,2,17,0.11
2013-3-4,31,27,24,26,22,20,87,81,70,29.74,29.56,16,5,24,0.00
2013-3-5,44,33,26,34,27,21,100,81,58,30.07,29.74,13,2,17,0.01
2013-3-6,29,29,29,28,28,28,98,98,98,30.15,30.15,1,1,5,0.00
2013-3-7,33,29,28,29,26,25,100,89,76,30.17,30.07,9,2,16,0.01
2013-3-8,32,31,31,23,22,22,70,69,68,30.19,30.19,1,1,5,0.06
2013-3-9,53,34,21,31,23,16,100,69,25,30.35,30.17,8,1,11,0.00
2013-3-10,44,30,19,32,26,19,100,90,60,30.39,30.27,7,1,10,0.00
2013-3-11,49,35,27,35,31,27,100,87,50,30.29,30.11,8,1,14,0.00
2013-3-12,44,39,35,44,39,35,100,100,100,30.11,29.71,10,2,13,0.56
2013-3-13,46,38,28,42,33,26,100,83,52,29.77,29.70,16,3,18,0.01
2013-3-14,34,27,15,28,18,3,95,69,52,29.79,29.65,14,4,28,0.00
2013-3-15,36,22,13,29,12,2,100,67,39,29.81,29.60,13,4,27,0.00
2013-3-16,30,26,21,25,15,11,100,65,47,29.89,29.68,8,2,17,0.00
2013-3-17,23,23,22,14,13,13,68,66,65,29.89,29.88,1,1,4,0.00
2013-3-18,31,30,28,22,16,8,78,59,38,30.29,30.24,8,2,10,0.00
2013-3-19,31,27,22,31,26,22,100,99,79,30.23,29.73,11,0,13,0.00
2013-3-20,33,27,21,28,22,18,100,82,59,29.76,29.67,10,2,18,0.00
2013-3-21,36,27,19,23,18,13,89,70,45,29.78,29.62,11,2,19,0.01
2013-3-22,36,26,14,24,18,11,94,73,47,29.71,29.61,8,2,14,0.07
2013-3-23,38,31,22,24,21,16,82,68,47,29.77,29.61,13,4,26,0.07
2013-3-24,43,34,25,27,25,22,93,68,50,29.82,29.73,14,4,24,0.12
2013-3-25,41,30,19,31,26,19,100,87,62,29.80,29.59,5,1,8,0.00
2013-3-26,47,37,28,29,24,21,91,62,37,29.78,29.59,8,2,13,0.00
2013-3-27,48,40,34,34,27,23,98,63,44,29.92,29.75,13,3,19,0.00
2013-3-28,45,38,32,38,33,31,100,83,64,30.03,29.91,8,2,11,0.04
2013-3-29,51,44,39,37,34,30,82,68,51,30.06,29.99,10,3,16,0.00
2013-3-30,52,42,28,32,26,18,80,57,29,30.11,30.03,8,2,13,0.00
2013-3-31,54,38,23,39,27,22,100,70,33,30.12,29.82,13,2,16,0.01